DW2182 Weather Reports


Display with metric or nautical units.
time (UTC)temp
F
wind
direction
speed
MPH
gust
MPH
rain 1hr
in
rain 24hr
in
rain mn
in
humidity
%
barometer
mb
20260508165516 74 135 6.0 10.0 0.00 0.00 0.00 22 1006.4
20260508164517 74 113 4.0 9.0 0.00 0.00 0.00 20 1006.5
20260508163517 72 135 6.0 11.0 0.00 0.00 0.00 22 1006.8
20260508162536 71 135 6.0 10.0 0.00 0.00 0.00 24 1006.8
20260508161517 70 135 4.0 9.0 0.00 0.00 0.00 22 1007.0
20260508160536 70 135 6.0 11.0 0.00 0.00 0.00 24 1007.1
20260508155516 70 135 6.0 14.0 0.00 0.00 0.00 23 1007.1
20260508154516 69 135 4.0 8.0 0.00 0.00 0.00 25 1007.2
20260508153516 69 135 5.0 11.0 0.00 0.00 0.00 25 1007.2
20260508152517 68 135 3.0 10.0 0.00 0.00 0.00 27 1007.2
20260508151517 67 113 4.0 12.0 0.00 0.00 0.00 26 1007.4
20260508150537 66 113 5.0 10.0 0.00 0.00 0.00 28 1007.5
20260508145517 64 113 4.0 8.0 0.00 0.00 0.00 30 1007.7
20260508144517 64 135 5.0 10.0 0.00 0.00 0.00 31 1007.8
20260508143536 63 113 4.0 7.0 0.00 0.00 0.00 33 1007.8
20260508142516 61 113 4.0 9.0 0.00 0.00 0.00 35 1007.9
20260508141537 59 113 3.0 6.0 0.00 0.00 0.00 38 1008.0
20260508140517 58 90 3.0 6.0 0.00 0.00 0.00 41 1008.1
20260508135516 57 113 2.0 4.0 0.00 0.00 0.00 42 1008.1
20260508134536 55 90 3.0 6.0 0.00 0.00 0.00 44 1008.1
20260508133536 54 90 4.0 9.0 0.00 0.00 0.00 45 1008.2
20260508132516 53 90 4.0 8.0 0.00 0.00 0.00 45 1008.2
20260508131516 53 90 6.0 9.0 0.00 0.00 0.00 47 1008.3
20260508130516 52 90 4.0 8.0 0.00 0.00 0.00 47 1008.3
20260508125516 51 90 5.0 10.0 0.00 0.00 0.00 49 1008.3
20260508124516 49 90 5.0 8.0 0.00 0.00 0.00 50 1008.3
20260508123516 47 90 4.0 7.0 0.00 0.00 0.00 53 1008.3
20260508122516 46 90 3.0 6.0 0.00 0.00 0.00 53 1008.2
20260508121516 46 90 5.0 8.0 0.00 0.00 0.00 53 1008.3
20260508120517 45 90 6.0 7.0 0.00 0.00 0.00 54 1008.1
20260508115517 44 90 6.0 8.0 0.00 0.00 0.00 55 1008.1
20260508114516 43 113 5.0 7.0 0.00 0.00 0.00 56 1008.0
20260508113536 43 90 5.0 8.0 0.00 0.00 0.00 56 1008.0
20260508112516 43 90 6.0 8.0 0.00 0.00 0.00 57 1008.1
20260508111516 42 90 5.0 8.0 0.00 0.00 0.00 58 1008.2
20260508110516 42 90 3.0 6.0 0.00 0.00 0.00 60 1008.0
20260508105536 41 90 3.0 4.0 0.00 0.00 0.00 61 1008.2
20260508104516 41 90 2.0 3.0 0.00 0.00 0.00 61 1008.1
20260508103536 41 90 2.0 4.0 0.00 0.00 0.00 61 1008.2
20260508102516 40 90 4.0 7.0 0.00 0.00 0.00 63 1008.2
20260508101516 39 90 2.0 4.0 0.00 0.00 0.00 66 1008.2
20260508100516 40 90 3.0 6.0 0.00 0.00 0.00 65 1008.2
20260508095536 40 90 2.0 3.0 0.00 0.00 0.00 63 1008.3
20260508094518 40 0.0 1.0 0.00 0.00 0.00 62 1008.4
20260508093516 40 90 1.0 3.0 0.00 0.00 0.00 61 1008.4
20260508092518 40 0.0 0.0 0.00 0.00 0.00 61 1008.4
20260508091516 40 0.0 0.0 0.00 0.00 0.00 60 1008.6
20260508090536 41 0.0 0.0 0.00 0.00 0.00 61 1008.5
20260508085516 41 0.0 0.0 0.00 0.00 0.00 60 1008.6
20260508084516 41 0.0 0.0 0.00 0.00 0.00 60 1008.6
20260508083516 41 0.0 0.0 0.00 0.00 0.00 60 1008.6
20260508082536 40 0.0 0.0 0.00 0.00 0.00 60 1008.6
20260508081516 40 0.0 0.0 0.00 0.00 0.00 60 1008.7
20260508080516 40 90 2.0 4.0 0.00 0.00 0.00 62 1008.7
20260508075516 40 0.0 3.0 0.00 0.00 0.00 64 1008.7
20260508074516 40 0 1.0 3.0 0.00 0.00 0.00 66 1008.7
20260508073536 40 0.0 0.0 0.00 0.00 0.00 66 1008.9
20260508072516 40 0.0 0.0 0.00 0.00 0.00 66 1008.9
20260508071517 40 0.0 1.0 0.00 0.00 0.00 65 1008.9
20260508070516 41 0.0 1.0 0.00 0.00 0.00 65 1009.0
20260508065516 41 0.0 0.0 0.00 0.00 0.00 65 1009.1
20260508064536 41 0.0 0.0 0.00 0.00 0.00 64 1009.2
20260508063516 42 0.0 0.0 0.00 0.00 0.00 63 1009.2
20260508062516 42 0.0 0.0 0.00 0.00 0.00 63 1009.3
20260508061516 42 0.0 0.0 0.00 0.00 0.00 62 1009.3
20260508060516 42 0.0 0.0 0.00 0.00 0.00 61 1009.3
20260508055516 43 0.0 0.0 0.00 0.00 0.00 61 1009.4
20260508054516 43 0.0 0.0 0.00 0.00 0.00 60 1009.5
20260508053535 43 0.0 0.0 0.00 0.00 0.00 59 1009.6
20260508052516 44 0.0 0.0 0.00 0.00 0.00 58 1009.6
20260508051516 44 0.0 0.0 0.00 0.00 0.00 57 1009.6
20260508050516 45 0.0 0.0 0.00 0.00 0.00 57 1009.5
20260508045536 45 0.0 0.0 0.00 0.00 0.00 56 1009.6
20260508044516 45 0.0 0.0 0.00 0.00 0.00 55 1009.7
20260508043516 46 0.0 0.0 0.00 0.00 0.00 54 1009.7
20260508042516 46 0.0 0.0 0.00 0.00 0.00 54 1009.8
20260508041536 47 0.0 0.0 0.00 0.00 0.00 53 1009.8
20260508040516 48 0.0 0.0 0.00 0.00 0.00 53 1009.9
20260508035516 48 0.0 0.0 0.00 0.00 0.00 52 1009.9
20260508034516 49 0.0 0.0 0.00 0.00 0.00 50 1009.8
20260508033516 50 0.0 0.0 0.00 0.00 0.00 47 1009.9
20260508032516 51 0.0 0.0 0.00 0.00 0.00 44 1009.9
20260508031515 52 0.0 0.0 0.00 0.00 0.00 42 1009.8
20260508030536 53 0.0 0.0 0.00 0.00 0.00 40 1009.8
20260508025536 53 0.0 0.0 0.00 0.00 0.00 38 1009.9
20260508024515 54 0.0 0.0 0.00 0.00 0.00 37 1009.8
20260508023515 55 0.0 0.0 0.00 0.00 0.00 36 1009.7
20260508022536 56 0.0 0.0 0.00 0.00 0.00 37 1009.7
20260508021516 57 0.0 1.0 0.00 0.00 0.00 32 1009.6
20260508020536 58 0.0 0.0 0.00 0.00 0.00 31 1009.5
20260508015515 59 0.0 2.0 0.00 0.00 0.00 29 1009.3
20260508014535 60 0.0 1.0 0.00 0.00 0.00 29 1009.2
20260508013535 60 0 1.0 4.0 0.00 0.00 0.00 27 1009.1
20260508012516 61 158 2.0 6.0 0.00 0.00 0.00 27 1009.0
20260508011516 61 135 3.0 6.0 0.00 0.00 0.00 26 1009.0
20260508010536 61 135 3.0 7.0 0.00 0.00 0.00 27 1008.8
20260508005536 62 135 2.0 5.0 0.00 0.00 0.00 26 1008.7
20260508004516 62 0 3.0 5.0 0.00 0.00 0.00 25 1008.5
20260508003515 62 135 4.0 8.0 0.00 0.00 0.00 26 1008.4
20260508002516 62 135 3.0 5.0 0.00 0.00 0.00 25 1008.3
20260508001535 62 135 3.0 7.0 0.00 0.00 0.00 24 1008.5
20260508000515 63 135 3.0 7.0 0.00 0.00 0.00 24 1008.4
20260507235515 63 135 3.0 7.0 0.00 0.00 0.00 25 1008.5
20260507234516 63 0 2.0 6.0 0.00 0.00 0.00 24 1008.5
20260507233515 63 135 3.0 7.0 0.00 0.00 0.00 24 1008.6
20260507232516 63 135 4.0 9.0 0.00 0.00 0.00 23 1008.6
20260507231517 63 135 6.0 12.0 0.00 0.00 0.00 23 1008.7
20260507230537 64 135 6.0 13.0 0.00 0.00 0.00 22 1008.6
20260507225516 64 158 5.0 16.0 0.00 0.00 0.00 23 1008.8
20260507224517 64 135 3.0 9.0 0.00 0.00 0.00 24 1008.8
20260507223515 64 158 6.0 13.0 0.00 0.00 0.00 22 1009.0
20260507222517 65 135 7.0 14.0 0.00 0.00 0.00 24 1009.0
20260507221516 65 135 6.0 11.0 0.00 0.00 0.00 23 1009.1
20260507220537 65 135 7.0 13.0 0.00 0.00 0.00 22 1009.3
20260507215517 65 135 5.0 10.0 0.00 0.00 0.00 21 1009.4
20260507214518 66 135 4.0 9.0 0.00 0.00 0.00 24 1009.4
20260507213517 65 135 5.0 10.0 0.00 0.00 0.00 22 1009.7
20260507212517 66 113 3.0 9.0 0.00 0.00 0.00 24 1009.6
20260507211517 66 135 4.0 10.0 0.00 0.00 0.00 23 1009.8
20260507210517 65 135 5.0 10.0 0.00 0.00 0.00 24 1009.6
20260507205517 65 135 4.0 10.0 0.00 0.00 0.00 22 1009.8
20260507204517 65 135 5.0 14.0 0.00 0.00 0.00 23 1009.9
20260507203517 64 135 3.0 9.0 0.00 0.00 0.00 23 1010.0
20260507202517 65 135 5.0 12.0 0.00 0.00 0.00 23 1010.2
20260507201517 65 135 5.0 11.0 0.00 0.00 0.00 23 1010.3
20260507200517 64 135 4.0 7.0 0.00 0.00 0.00 23 1010.4
20260507195517 65 135 7.0 11.0 0.00 0.00 0.00 23 1010.6
20260507194517 65 135 3.0 7.0 0.00 0.00 0.00 26 1010.6
20260507193517 65 135 5.0 10.0 0.00 0.00 0.00 26 1010.8
20260507192517 65 135 5.0 13.0 0.00 0.00 0.00 25 1010.7
20260507191517 64 135 5.0 13.0 0.00 0.00 0.00 24 1010.8
20260507190517 63 135 3.0 10.0 0.00 0.00 0.00 26 1010.7
20260507185517 63 158 7.0 15.0 0.00 0.00 0.00 24 1010.9
20260507184537 63 113 4.0 7.0 0.00 0.00 0.00 25 1010.8
20260507183517 62 135 4.0 10.0 0.00 0.00 0.00 29 1011.1
20260507182517 62 158 5.0 9.0 0.00 0.00 0.00 26 1011.0
20260507181537 62 0 4.0 10.0 0.00 0.00 0.00 26 1011.1
20260507180517 61 0 5.0 18.0 0.00 0.00 0.00 28 1011.1
20260507175517 61 23 4.0 11.0 0.00 0.00 0.00 32 1011.4
20260507174517 60 158 4.0 9.0 0.00 0.00 0.00 28 1011.3
20260507173518 61 113 5.0 13.0 0.00 0.00 0.00 27 1011.4
20260507172518 60 135 3.0 7.0 0.00 0.00 0.00 29 1011.5
20260507171517 60 23 5.0 13.0 0.00 0.00 0.00 30 1011.6
20260507170517 59 135 2.0 5.0 0.00 0.00 0.00 30 1011.7